Погода в Нове Страшеци

Чехия     50°09′13″N   13°53′52″E
темп.,
°C
ветер,
м/с
пор.,
м/с
влажн.,
%
обл.,
%
осадки,
мм/ч
давл.,
гПа
погр.,
м
17 апреля, сб
сб1723:00+3зюз349375 0.0 102394
02:00+1з349490 0.0 102383
05:00+1зсз2491100 0.0 102288
08:00+2зсз3598100 0.3 1022221
11:00+3зсз349599 0.6 1022314
14:00+5с3379100 0.8 1021840
17:00+5ссв3484100 0.1 1021677
20:00+4ссв2392100 0.1 1021156
18 апреля, вс
вс1823:00+3зюз1194100 0.1 102173
02:00+3з1296100 0.9 1021125
05:00+3з1196100 0.4 102056
08:00+4з1195100 0.6 1020100
11:00+5ссз2291100 0.1 1020442
14:00+7с2284100 0.2 1020614
17:00+8сз2376100 0.1 1018840
20:00+6ссв1190100 0.3 101911
19 апреля, пн
пн1923:00+5с1193100 0.0 101910
02:00+4ссз1194100 0.0 101910
05:00+3сз1194100 0.0 101810
08:00+5сз1289100 0.0 1018121
11:00+9с3476100 0.0 1017756
14:00+7с3492100 1.0 1017299
17:00+7юв0195100 2.0 101673
20:00+6ссз1194100 2.5 101615
20 апреля, вт
вт2023:00+5зсз229390 0.0 101617
02:00+4сз11945 0.0 101511
05:00+3ссз119536 0.0 101510
08:00+5ссз1192100 0.1 1015103
11:00+6юз1194100 1.2 101587
14:00+11зюз227027 1.6 1014726
17:00+12с225725 0.2 10121251
20:00+8с228313 0.3 101310
21 апреля, ср
ср2123:00+5сз11876 0.1 101310
02:00+5з118981 0.1 101310
05:00+4зюз229021 0.0 101310
08:00+7зюз23825 0.0 1013178
11:00+12зсз33604 0.5 10121112
14:00+15з354371 0.6 10102231
17:00+14з565080 0.1 10091599
20:00+8зсз71092100 3.2 1011729